Cloud_Cover
100 100 100 100 100 100 100 100 100 100 91 100 100 87 74 14 100 100 99 37 94 99 40 5 0 31 5 5 5 8 5 5 91 34 30 5 5 5 11 52 5 6 27 3
100 100 100 100 100 100 100 94 100 100 100 100 100 100 100 100 56 46 94 94 91 78 98 83 64 3 28 21 5 5 5 44 97 67 30 1 1 3 4 4 4 0 2 53
100 100 100 100 100 100 100 97 100 99 100 100 100 100 100 100 100 98 93 100 88 68 98 100 100 97 36 14 73 12 5 0 5 3 0 0 0 0 0 0 0 0 1 72
100 100 100 100 100 100 100 99 100 100 99 100 100 100 100 100 100 100 100 100 100 100 92 89 100 100 100 98 7 5 26 35 4 3 0 0 0 0 0 0 0 0 3 0
100 100 100 100 100 100 100 100 95 63 92 100 100 100 100 100 100 100 100 100 100 100 100 91 100 100 100 100 100 100 40 57 3 5 5 1 4 5 4 0 3 5 0 1
100 100 100 100 100 100 100 100 100 100 100 100 100 100 100 100 100 100 100 100 100 100 100 44 100 100 100 100 100 100 100 100 100 57 4 1 4 1 2 3 5 5 5 5
100 100 100 100 100 100 100 100 100 100 96 100 100 100 100 100 100 100 100 100 100 100 100 100 66 100 100 100 100 100 100 100 82 81 100 21 100 10 18 5 5 5 5 5
100 100 100 100 100 100 100 100 100 100 100 100 100 100 100 100 100 100 100 100 100 100 100 100 100 100 99 95 100 100 100 100 100 91 66 8 17 100 100 81 85 73 96 78
100 100 100 100 100 100 100 100 100 100 100 100 100 100 100 100 100 100 100 100 100 100 100 100 100 100 100 66 100 100 100 100 100 100 100 43 89 100 100 100 16 100 100 100
5 57 97 100 100 100 100 100 100 100 100 100 100 100 100 100 100 100 100 100 100 100 100 100 100 100 100 100 100 100 100 100 100 100 100 100 100 100 100 100 100 100 100 100
5 5 5 5 64 86 100 100 100 100 100 100 100 100 100 100 100 100 100 100 100 100 100 100 100 100 100 100 100 100 100 100 100 100 94 10 100 100 100 100 100 100 100 100
22 19 23 32 5 16 72 88 78 100 100 100 100 100 100 100 100 100 100 100 100 100 100 100 100 100 100 100 100 100 100 100 100 100 100 100 100 100 100 100 100 100 100 100
5 5 5 94 85 26 40 89 94 97 77 72 100 100 100 100 100 100 100 100 100 100 100 100 100 100 100 100 100 100 100 100 100 100 100 100 100 100 100 100 100 100 100 100
43 5 5 5 5 5 9 66 59 96 89 94 6 56 100 100 100 100 100 100 100 100 100 100 100 100 100 100 100 100 100 100 100 100 100 100 100 100 100 100 100 100 100 100
20 99 6 5 7 15 5 5 12 63 98 94 20 3 92 55 100 100 100 100 100 100 100 100 100 100 100 100 100 100 100 100 100 100 100 100 100 100 100 100 100 100 100 100
48 93 100 15 5 62 6 7 23 81 100 100 77 10 4 13 100 100 100 100 100 100 100 100 100 100 100 100 100 100 100 100 100 100 100 100 100 100 100 100 100 100 100 100
21 5 27 14 5 8 34 24 63 50 63 100 78 98 48 72 100 100 100 100 100 100 100 100 100 100 100 100 100 100 100 100 100 100 100 100 100 100 100 100 100 100 100 100
13 5 6 5 5 9 45 10 19 54 66 100 99 76 60 67 100 100 100 100 100 100 100 100 100 100 100 100 100 100 100 100 100 100 100 100 100 100 100 100 100 100 100 100
5 5 2 5 31 43 26 5 23 86 100 92 100 100 100 96 100 100 100 100 100 100 100 100 100 100 100 100 100 100 100 100 100 100 100 100 100 100 100 100 100 100 100 100
0 0 4 50 86 40 6 82 85 86 100 88 87 97 100 94 100 100 100 100 100 100 100 100 100 100 100 100 100 100 100 100 100 100 100 100 100 100 100 100 100 100 100 100
8 30 35 6 28 48 88 69 83 94 93 89 100 96 98 99 100 100 100 100 100 100 100 100 100 100 100 100 100 100 100 100 100 100 100 100 100 100 100 100 100 100 91 68
44 84 30 90 100 98 94 99 91 100 100 100 100 100 100 100 100 100 100 100 100 100 100 100 100 100 100 100 100 100 100 100 100 100 100 100 100 100 100 100 94 69 35 20
5 5 68 93 88 100 100 100 100 100 100 100 100 97 100 100 100 100 100 100 100 100 100 100 100 100 100 100 100 100 100 100 100 100 100 100 100 100 100 100 100 99 97 71
6 21 99 100 100 100 100 100 100 100 100 100 100 100 58 86 84 100 100 100 100 100 100 100 100 100 100 100 100 100 100 100 100 100 100 100 100 100 100 100 99 89 64 62
24 54 96 100 100 100 100 100 100 100 100 100 95 82 49 81 98 97 100 100 100 100 100 100 100 100 100 100 100 100 100 100 100 100 97 96 70 76 62 98 100 100 100 100
46 74 99 92 100 100 99 100 100 100 100 99 63 80 99 100 92 84 99 100 100 100 100 100 100 100 100 100 100 100 100 100 100 100 100 100 100 100 100 100 100 100 100 81
82 100 100 100 100 100 100 100 100 100 100 99 68 83 99 71 70 97 99 100 100 100 100 100 100 100 100 99 99 100 100 100 100 100 100 100 100 100 100 100 100 100 100 100